| time (UTC) | temp F | wind direction | speed knots | gust knots | rain 1hr in | rain 24hr in | rain mn in | humidity % | barometer mb |
| 20260506044546 | 49 | 32 | 0.0 | 0.0 | 0.06 | 0.84 | 0.05 | 96 | 1008.0 |
| 20260506043042 | 49 | 19 | 0.0 | 0.0 | 0.07 | 0.82 | 0.03 | 97 | 1008.0 |
| 20260506041542 | 49 | 26 | 0.0 | 0.0 | 0.10 | 0.81 | 0.02 | 97 | 1008.2 |
| 20260506040038 | 49 | 70 | 0.0 | 0.0 | 0.10 | 0.79 | 0.00 | 97 | 1008.2 |
| 20260506034539 | 50 | 259 | 0.0 | 0.0 | 0.15 | 0.78 | 0.78 | 97 | 1008.5 |
| 20260506033038 | 49 | 248 | 0.0 | 0.0 | 0.16 | 0.75 | 0.75 | 97 | 1008.9 |
| 20260506031537 | 49 | 270 | 0.0 | 0.0 | 0.14 | 0.71 | 0.71 | 97 | 1008.1 |
| 20260506030055 | 49 | 50 | 0.0 | 0.0 | 0.14 | 0.69 | 0.69 | 96 | 1007.9 |
| 20260506024544 | 49 | 34 | 0.0 | 0.0 | 0.13 | 0.63 | 0.63 | 96 | 1008.2 |
| 20260506023033 | 49 | 41 | 0.0 | 0.0 | 0.10 | 0.59 | 0.59 | 96 | 1008.2 |
| 20260506021532 | 49 | 27 | 0.0 | 0.0 | 0.08 | 0.56 | 0.56 | 96 | 1008.0 |
| 20260506020032 | 49 | 14 | 0.0 | 0.0 | 0.08 | 0.55 | 0.55 | 96 | 1008.1 |
| 20260506014534 | 49 | 336 | 0.0 | 0.0 | 0.03 | 0.50 | 0.50 | 96 | 1008.0 |
| 20260506013031 | 49 | 61 | 0.0 | 0.0 | 0.06 | 0.49 | 0.49 | 96 | 1007.6 |
| 20260506011536 | 49 | 14 | 0.0 | 0.0 | 0.10 | 0.49 | 0.49 | 96 | 1007.7 |
| 20260506010027 | 49 | 32 | 0.0 | 0.0 | 0.12 | 0.47 | 0.47 | 96 | 1007.5 |
| 20260506004543 | 49 | 53 | 0.0 | 0.0 | 0.26 | 0.47 | 0.47 | 95 | 1007.3 |
| 20260506003033 | 49 | 69 | 0.0 | 0.0 | 0.24 | 0.43 | 0.43 | 95 | 1007.8 |
| 20260506001526 | 49 | 360 | 0.0 | 0.0 | 0.21 | 0.39 | 0.39 | 95 | 1007.9 |
| 20260506000024 | 50 | 79 | 0.0 | 0.0 | 0.16 | 0.34 | 0.34 | 94 | 1007.8 |
| 20260505234518 | 51 | 20 | 0.0 | 0.0 | 0.03 | 0.21 | 0.21 | 94 | 1007.6 |
| 20260505233017 | 52 | 6 | 0.0 | 0.0 | 0.02 | 0.19 | 0.19 | 94 | 1007.2 |
| 20260505231521 | 52 | 28 | 0.0 | 0.0 | 0.02 | 0.18 | 0.18 | 94 | 1007.1 |
| 20260505230014 | 53 | 32 | 0.0 | 0.0 | 0.02 | 0.18 | 0.18 | 93 | 1007.1 |
| 20260505224509 | 54 | 7 | 0.0 | 0.0 | 0.13 | 0.18 | 0.18 | 92 | 1007.5 |
| 20260505223005 | 56 | 27 | 0.0 | 0.0 | 0.12 | 0.17 | 0.17 | 95 | 1007.1 |
| 20260505221505 | 56 | 345 | 0.0 | 0.0 | 0.12 | 0.16 | 0.16 | 94 | 1007.2 |
| 20260505220003 | 57 | 349 | 0.0 | 0.0 | 0.12 | 0.16 | 0.16 | 93 | 1007.3 |
| 20260505214605 | 57 | 288 | 0.0 | 0.0 | 0.01 | 0.05 | 0.05 | 92 | 1007.0 |
| 20260505213111 | 57 | 339 | 0.0 | 0.0 | 0.01 | 0.05 | 0.05 | 92 | 1006.5 |
| 20260505211555 | 58 | 321 | 0.0 | 0.0 | 0.00 | 0.04 | 0.04 | 90 | 1006.6 |
| 20260505210052 | 59 | 311 | 0.0 | 0.0 | 0.00 | 0.04 | 0.04 | 90 | 1006.5 |
| 20260505204550 | 59 | 347 | 0.0 | 0.0 | 0.00 | 0.04 | 0.04 | 90 | 1006.2 |
| 20260505203051 | 60 | 345 | 0.0 | 0.0 | 0.00 | 0.04 | 0.04 | 90 | 1006.4 |
| 20260505201547 | 61 | 358 | 0.0 | 0.0 | 0.03 | 0.04 | 0.04 | 89 | 1006.4 |
| 20260505200044 | 61 | 4 | 0.0 | 0.0 | 0.04 | 0.04 | 0.04 | 88 | 1006.3 |
| 20260505194549 | 61 | 299 | 0.0 | 0.0 | 0.04 | 0.04 | 0.04 | 87 | 1006.5 |
| 20260505193101 | 61 | 262 | 0.0 | 0.0 | 0.04 | 0.04 | 0.04 | 84 | 1006.8 |
| 20260505191540 | 63 | 274 | 0.0 | 0.0 | 0.01 | 0.01 | 0.01 | 77 | 1006.8 |
| 20260505190040 | 64 | 305 | 0.0 | 0.0 | 0.00 | 0.00 | 0.00 | 74 | 1006.5 |
| 20260505184537 | 64 | 271 | 0.0 | 0.0 | 0.00 | 0.00 | 0.00 | 73 | 1006.6 |
| 20260505183034 | 65 | 264 | 0.0 | 0.0 | 0.00 | 0.00 | 0.00 | 72 | 1006.6 |
| 20260505181535 | 66 | 310 | 0.0 | 0.0 | 0.00 | 0.00 | 0.00 | 70 | 1006.5 |
| 20260505180038 | 67 | 289 | 0.0 | 0.0 | 0.00 | 0.00 | 0.00 | 69 | 1006.3 |
| 20260505174531 | 66 | 320 | 0.0 | 0.0 | 0.00 | 0.00 | 0.00 | 69 | 1006.2 |
| 20260505173029 | 68 | 335 | 0.0 | 0.0 | 0.00 | 0.00 | 0.00 | 65 | 1006.1 |
| 20260505171528 | 69 | 257 | 0.0 | 0.0 | 0.00 | 0.00 | 0.00 | 63 | 1005.8 |
| 20260505170026 | 69 | 236 | 0.0 | 0.0 | 0.00 | 0.00 | 0.00 | 61 | 1005.7 |
| 20260505164526 | 70 | 255 | 0.0 | 0.0 | 0.00 | 0.00 | 0.00 | 60 | 1005.6 |
| 20260505163030 | 70 | 277 | 0.0 | 0.0 | 0.00 | 0.00 | 0.00 | 61 | 1005.6 |
| 20260505161523 | 69 | 278 | 0.0 | 0.0 | 0.00 | 0.00 | 0.00 | 62 | 1005.5 |
| 20260505153021 | 68 | 276 | 0.0 | 0.0 | 0.00 | 0.00 | 0.00 | 65 | 1005.6 |
| 20260505151512 | 67 | 250 | 0.0 | 0.0 | 0.00 | 0.00 | 0.00 | 68 | 1005.7 |
| 20260505140107 | 63 | 168 | 0.0 | 0.0 | 0.00 | 0.00 | 0.00 | 77 | 1005.4 |
| 20260505124557 | 63 | 332 | 0.0 | 0.0 | 0.00 | 0.00 | 0.00 | 75 | 1004.9 |
| 20260505123058 | 63 | 197 | 0.0 | 0.0 | 0.00 | 0.00 | 0.00 | 74 | 1004.8 |
| 20260505121549 | 63 | 210 | 0.0 | 0.0 | 0.00 | 0.00 | 0.00 | 73 | 1004.7 |
| 20260505120055 | 64 | 241 | 0.0 | 0.0 | 0.00 | 0.00 | 0.00 | 70 | 1005.0 |
| 20260505114549 | 64 | 236 | 0.0 | 0.0 | 0.00 | 0.00 | 0.00 | 70 | 1004.5 |
| 20260505113050 | 64 | 217 | 0.0 | 0.0 | 0.00 | 0.00 | 0.00 | 69 | 1004.4 |
| 20260505111541 | 64 | 261 | 0.0 | 0.0 | 0.00 | 0.00 | 0.00 | 69 | 1004.3 |
| 20260505101530 | 0 | 0.0 | 0.0 | 0.00 | 0.00 | 0.00 | 1003.3 | ||
| 20260505100028 | 0 | 0.0 | 0.0 | 0.00 | 0.00 | 0.00 | 1003.3 | ||
| 20260505094519 | 65 | 243 | 0.0 | 0.0 | 0.00 | 0.00 | 0.00 | 69 | 1003.0 |
| 20260505093017 | 64 | 195 | 0.0 | 0.0 | 0.00 | 0.00 | 0.00 | 68 | 1002.8 |
| 20260505091520 | 64 | 212 | 0.0 | 0.0 | 0.00 | 0.00 | 0.00 | 69 | 1003.2 |
| 20260505090016 | 65 | 189 | 0.0 | 0.0 | 0.00 | 0.00 | 0.00 | 69 | 1003.0 |
| 20260505084515 | 65 | 205 | 0.0 | 0.0 | 0.00 | 0.00 | 0.00 | 69 | 1003.0 |
| 20260505083018 | 64 | 258 | 0.0 | 0.0 | 0.00 | 0.00 | 0.00 | 70 | 1002.9 |
| 20260505081515 | 64 | 184 | 0.0 | 0.0 | 0.00 | 0.00 | 0.00 | 71 | 1002.7 |
| 20260505080021 | 64 | 240 | 0.0 | 0.0 | 0.00 | 0.00 | 0.00 | 71 | 1002.7 |
| 20260505074511 | 64 | 231 | 0.0 | 0.0 | 0.00 | 0.00 | 0.00 | 71 | 1002.6 |
| 20260505073023 | 64 | 175 | 0.0 | 0.0 | 0.00 | 0.00 | 0.00 | 71 | 1002.5 |
| 20260505071509 | 64 | 157 | 0.0 | 0.0 | 0.00 | 0.00 | 0.00 | 71 | 1002.5 |
| 20260505070008 | 64 | 149 | 0.0 | 0.0 | 0.00 | 0.00 | 0.00 | 71 | 1002.6 |
| 20260505064506 | 63 | 157 | 0.0 | 0.0 | 0.00 | 0.00 | 0.00 | 72 | 1002.7 |
| 20260505063004 | 63 | 250 | 0.0 | 0.0 | 0.00 | 0.00 | 0.00 | 73 | 1002.8 |
| 20260505061503 | 63 | 148 | 0.0 | 0.0 | 0.00 | 0.00 | 0.00 | 73 | 1003.0 |
| 20260505060001 | 63 | 209 | 0.0 | 0.0 | 0.00 | 0.00 | 0.00 | 74 | 1003.4 |